Location: Newark
(44.2003°N, 3.2583°E)
Time: 09:31:55
(UTC+00:00)

Transit 4A - Visible Passes

Search period start: 15 October 2019 00:00
Search period end: 25 October 2019 00:00
Orbit: 866 x 978 km, 66.8° (Epoch: 14 October)

Date Brightness Start Highest point End Pass type
(mag) Time Alt. Az. Time Alt. Az. Time Alt. Az.
15 Oct 9.2 05:01:46 10° S 05:07:48 46° ESE 05:13:44 10° NE visible
16 Oct 11.0 03:30:40 10° ESE 03:31:48 10° E 03:32:55 10° E visible
16 Oct 8.5 05:10:44 10° SSW 05:17:02 67° ESE 05:23:14 10° NE visible
17 Oct 10.6 03:36:56 10° SE 03:40:46 17° ESE 03:44:35 10° ENE visible
17 Oct 8.0 05:19:58 10° SSW 05:26:21 87° NW 05:32:38 10° NNE visible
18 Oct 10.0 03:44:48 10° SSE 03:49:49 25° ESE 03:54:47 10° NE visible
18 Oct 8.0 05:29:26 10° SW 05:35:44 63° NW 05:41:57 10° NNE visible
19 Oct 9.4 03:53:13 10° S 03:58:57 36° ESE 04:04:36 10° NE visible
20 Oct 8.7 04:02:00 10° S 04:08:08 53° ESE 04:14:12 10° NE visible
21 Oct 10.6 02:29:30 10° SE 02:32:03 13° E 02:34:34 10° ENE visible
21 Oct 8.1 04:11:35 13° SSW 04:17:24 76° ESE 04:23:39 10° NE visible
22 Oct 10.1 02:38:34 16° SE 02:41:03 20° ESE 02:45:20 10° ENE visible
22 Oct 7.9 04:22:10 20° SW 04:26:45 78° WNW 04:33:01 10° NNE visible
23 Oct 9.5 02:48:53 27° SE 02:50:07 29° ESE 02:55:22 10° NE visible
23 Oct 8.0 04:32:28 25° WSW 04:36:10 56° NW 04:42:17 10° NNE visible
24 Oct 8.9 02:58:59 41° ESE 02:59:17 42° ESE 03:05:05 10° NE visible
24 Oct 8.4 04:42:33 25° WSW 04:45:40 41° NW 04:51:31 10° NNE visible
